Location: ???????
(55.4362°N, 38.1183°E)
Time: 16:32:08
(UTC+00:00)

Cosmos 1513 Rocket - Pass Details

Date: 17 June 2021
Orbit: 940 x 1008 km, 82.9° (Epoch: 29 July)

Event Time Altitude Azimuth Distance (km) Brightness Sun altitude
Rises 20:27:51 0° 348° (NNW) 3,618 9.8 -10.1°
Reaches altitude 10° 20:30:20 10° 348° (NNW) 2,670 8.4 -10.2°
Maximum altitude 20:36:27 89° 257° (WSW) 953 4.5 -10.4°
Enters shadow 20:41:54 13° 171° (S) 2,426 5.9 -10.5°
